Location: Feydey
(46.3431°N, 7.0106°E)
Time: 01:06:09
(UTC+00:00)

Cosmos 1486 Rocket - Visible Passes

Search period start: 24 October 2021 00:00
Search period end: 03 November 2021 00:00
Orbit: 758 x 784 km, 74.1° (Epoch: 23 October)

Date Brightness Start Highest point End Pass type
(mag) Time Alt. Az. Time Alt. Az. Time Alt. Az.
31 Oct 6.5 19:08:00 10° N 19:08:11 11° N 19:08:11 11° N visible
01 Nov 6.4 18:32:40 10° NNE 18:32:41 10° NNE 18:32:41 10° NNE visible
02 Nov 6.5 19:36:57 10° N 19:37:31 13° N 19:37:31 13° N visible
